Location: Amsterdam
(30.7274°N, 84.4357°W)
Time: 21:22:05
(UTC+00:00)

Tiros 1 despin weight - Pass Details

Date: 25 February 2026
Orbit: 556 x 593 km, 48.2° (Epoch: 9 March)

Event Time Altitude Azimuth Distance (km) Brightness Sun altitude
Rises 18:48:07 0° 286° (WNW) 2,757 ? 48.1°
Reaches altitude 10° 18:51:51 10° 319° (NW) 1,853 ? 47.8°
Maximum altitude 18:53:23 12° 340° (NNW) 1,742 ? 47.6°
Drops below altitude 10° 18:54:55 10° 2° (N) 1,847 ? 47.5°
Sets 18:58:38 0° 35° (NE) 2,737 ? 47.2°
